User: anonymous   Login
Location: Newark
(44.9333°N, 0.5667°E)
Time: 21:40:08
(UTC+00:00)
Language:

UWE-3 - Orbit

View from above orbital plane
View from above orbital plane
View from above satellite
View from above satellite

Ground track
Ground track

The orbit data is extracted from the following two-line orbital elements,

1 39446U 13066AG  21023.48242413  .00000292  00000-0  45205-4 0  9991
2 39446  97.6206   7.2173 0068725 312.9708  46.5753 14.78681605385086
Epoch (UTC): 23 January 2021 11:34:41
Eccentricity: 0.0068725
inclination: 97.6206°
perigee height: 585 km
apogee height: 681 km
right ascension of ascending node: 7.2173°
argument of perigee: 312.9708°
revolutions per day: 14.78681605
mean anomaly at epoch: 46.5753°
orbit number at epoch: 38508

The dashed part of the orbit path shows where the satellite is in the earth's shadow,  

DLR